Location: Pinawa
(50.1500°N, 95.8830°W)
Time: 18:40:05
(UTC-06:00)

Daily predictions for brighter satellites

Satellite Brightness Start Highest point End
(mag) Time Altitude Azimuth Time Altitude Azimuth Time Altitude Azimuth
Thor Agena Rocket 3.5 18:13:54 10° NNE 18:19:01 76° ESE 18:24:03 10° S
Okean 2 Rocket 3.6 18:19:01 10° SSE 18:23:06 36° E 18:27:12 10° NNE
Cosmos 1697 Rocket 4.4 18:18:42 10° NW 18:23:57 40° WSW 18:29:10 10° S
Cosmos 2360 Rocket 3.0 18:20:59 10° NNW 18:26:00 31° NE 18:30:59 10° ESE
ATLAS CENTAUR R/B 1.9 18:22:20 10° SW 18:26:54 65° NW 18:31:09 10° NE
Cosmos 1980 Rocket 3.0 18:21:31 10° NW 18:27:06 60° WSW 18:32:40 10° S
Cosmos 1862 4.3 18:24:16 10° SSW 18:28:15 53° WNW 18:32:16 10° N
Cosmos 2219 Rocket 3.9 18:26:22 10° N 18:29:32 15° NNE 18:32:41 10° ENE
FREGAT/IRIS 3.3 18:29:09 10° SE 18:32:00 35° ENE 18:34:52 10° N
Cosmos 1825 3.9 18:28:31 10° SW 18:32:04 36° WNW 18:35:39 10° N
Meteor 1-18 Rocket 4.2 18:30:10 10° N 18:35:43 62° ENE 18:41:14 10° SSE
Okean 3 4.3 18:32:41 10° NNW 18:36:57 58° W 18:41:09 10° S
Cosmos 1745 Rocket 4.1 18:31:08 10° S 18:37:18 57° E 18:43:26 10° NNE
METEOR-M 4.1 18:32:40 10° SSE 18:37:58 69° ENE 18:43:18 10° N
Cosmos 2151 Rocket 4.5 18:37:30 10° SSE 18:41:22 29° E 18:45:15 10° NNE
NOAA 12 4.1 18:36:38 10° SSE 18:41:57 76° ENE 18:47:18 10° NNW
Cosmos 1238 Rocket 3.7 18:42:30 10° NNE 18:44:53 18° ENE 18:46:37 12° ESE
ALOS 2.6 18:40:50 10° SE 18:45:15 44° ENE 18:49:41 10° N
SJ-6B 2.9 18:42:08 10° SSE 18:46:06 59° ENE 18:50:01 10° N
Cosmos 2333 Rocket 3.9 18:43:21 10° N 18:46:57 17° NNE 18:50:09 11° ENE
Cosmos 1461 2.7 18:47:20 10° NW 18:51:21 76° NE 18:55:24 10° SE
Meteor 1-14 Rocket 4.3 18:46:46 10° S 18:52:42 77° E 18:58:43 10° NNE
Spot 2 Rocket 3.8 18:48:21 10° SE 18:53:06 43° ENE 18:57:55 10° N
FengYun 1-2 T 4.3 18:49:19 10° SE 18:54:38 56° ENE 19:00:01 10° N
SL-16 R/B 2.3 18:51:45 10° NNW 18:57:29 86° WSW 19:03:09 10° SSE
Cosmos 2082 Rocket 3.3 18:52:16 10° SW 18:57:42 44° NW 19:03:12 10° NNE
CENTAUR R/B 4.2 18:57:43 10° NW 19:05:04 47° WSW 19:12:53 10° S
Helios 1A 3.8 19:02:05 12° ESE 19:05:20 30° ENE 19:08:59 10° N
USA 229 DEB 4.3 18:58:41 10° NW 19:05:21 42° NNE 19:10:22 18° E
USA 229 4.4 18:58:48 10° NW 19:05:26 41° NNE 19:10:27 18° E
Cosmos 1633 3.7 19:02:30 10° SE 19:05:28 23° E 19:08:27 10° NE
Meteor 1-13 Rocket 4.4 19:00:06 10° N 19:05:28 49° ENE 19:10:51 10° SSE
SKYMED 2 4.2 19:01:52 10° N 19:06:10 59° WNW 19:10:26 10° SSW
Cosmos 1975 Rocket 4.2 19:02:27 10° NNW 19:06:36 46° W 19:10:44 10° SSW
HJ-1C 3.3 19:03:54 10° SSE 19:07:14 62° ENE 19:10:36 10° N
Meteor 1-20 Rocket 4.3 19:02:12 10° S 19:07:56 65° E 19:13:45 10° NNE
Envisat 4.1 19:07:28 18° E 19:09:28 23° ENE 19:13:25 10° N
Okean 1 3.2 19:06:40 10° N 19:10:44 79° E 19:14:48 10° SSE
NOSS 3-4 (A) 4.4 19:07:00 10° WSW 19:13:09 47° NNW 19:19:36 10° NE
RESURS DK-1 4.2 19:09:27 10° WSW 19:13:11 31° NW 19:16:54 10° NNE
Cosmos 1340 2.8 19:09:27 10° N 19:13:11 51° ENE 19:16:53 10° SSE
NOSS 3-4 (C) 4.4 19:07:06 10° WSW 19:13:15 47° NNW 19:19:43 10° NE
Cosmos 2322 Rocket 2.7 19:11:17 10° NW 19:16:51 63° WSW 19:22:22 10° SSE
Meteor 1-28 Rocket 4.2 19:13:27 10° N 19:17:10 50° WNW 19:20:51 10° SSW
NOSS 2-2 (E) 3.6 19:15:35 10° SW 19:19:47 90° SW 19:24:38 12° NE
Tiangong 2 3.3 19:19:22 10° SW 19:21:29 17° SSW 19:22:55 13° SSE
ATLAS 2AS CENTAUR R/B 4.3 19:14:58 10° WNW 19:22:03 32° N 19:28:35 12° NE
Genesis I 4.0 19:21:35 10° NNW 19:25:16 35° NE 19:26:15 30° ENE
Cosmos 1536 Rocket 3.6 19:20:58 10° N 19:25:28 88° WSW 19:29:56 10° S
CZ-2D R/B 3.3 19:22:39 14° SE 19:25:48 52° ENE 19:29:32 10° N
Cosmos 2322 3.7 19:20:20 10° NNW 19:26:03 64° ENE 19:30:39 16° SE
ERS-1 Rocket 4.2 19:25:45 22° ENE 19:26:04 22° ENE 19:29:51 10° N
Cosmos 1025 Rocket 3.9 19:22:26 10° N 19:26:17 29° ENE 19:26:39 29° E
SL-19 R/B 4.4 19:22:37 10° SSE 19:28:17 89° WSW 19:34:21 10° NNW
USA 215 3.8 19:23:42 17° ENE 19:28:39 50° N 19:34:54 10° WNW
Resurs 01 Rocket 1.6 19:27:40 10° SSE 19:32:05 88° WSW 19:36:33 10° NNW
Cosmos 1818 4.0 19:28:01 10° S 19:33:05 41° ESE 19:35:28 27° ENE
Cosmos 2181 Rocket 3.9 19:28:52 10° N 19:35:07 80° E 19:41:24 10° SSE
Meteor 1-25 Rocket 4.5 19:30:04 10° SSW 19:35:40 72° WNW 19:41:23 10° N
Meteor 2-4 Rocket 3.8 19:30:07 10° N 19:35:42 54° ENE 19:40:14 15° SSE
COSMOS 2428 3.0 19:31:13 10° NNW 19:36:42 45° NE 19:39:01 30° ESE
Cosmos 1833 Rocket 4.5 19:32:33 10° WSW 19:37:25 29° NW 19:42:18 10° NNE
Cosmos 2237 4.3 19:31:56 10° NNW 19:37:36 55° NE 19:40:31 28° ESE
H-2A R/B 2.6 19:35:20 10° SSE 19:39:03 86° WSW 19:42:49 10° NNW
NOSS 2-2 (D) 3.8 19:35:36 10° SW 19:39:48 74° NW 19:43:42 17° NE
BREEZE-M DEB (TANK) 3.4 19:39:01 10° W 19:41:54 61° SSW 19:44:45 27° ESE
Meteor 1-11 Rocket 3.8 19:38:51 10° S 19:44:29 56° E 19:50:15 10° NNE
deb Kosmos-1763 4.2 19:41:15 10° SSW 19:45:03 80° WNW 19:48:09 15° NNE
FENGYUN 3A 4.2 19:40:56 10° S 19:46:17 62° W 19:51:41 10° NNW
Cosmos 2237 Rocket 3.3 19:46:46 10° NNW 19:51:34 27° NE 19:52:08 26° NE
Cosmos 1570 Rocket 3.9 19:47:40 10° NNW 19:52:54 65° ENE 19:54:50 38° SE
USA 186 2.9 19:57:14 34° N 19:57:14 34° N 19:59:04 10° N
NOSS 2-2 (C) 4.2 19:52:54 10° WSW 19:57:05 57° NW 20:00:25 20° NE
SL-08 ROCKET BODY 4.5 19:51:35 10° SSE 19:57:32 54° E 20:03:34 10° NNE
Cosmos 676 Rocket 3.8 19:53:14 10° SSW 19:58:25 78° ESE 20:03:40 10° NNE
Cosmos 407 Rocket 3.6 19:53:30 10° SSW 19:58:45 78° WNW 20:04:07 10° NNE
Resurs 1-3 4.2 19:55:21 10° S 19:59:40 57° W 20:04:01 10° NNW
Cosmos 1023 Rocket 4.5 19:55:41 10° S 20:00:37 52° ESE 20:01:15 49° E
Cosmos 2184 Rocket 4.1 19:55:22 10° SSE 20:01:26 51° E 20:07:29 10° NNE
Cosmos 2074 Rocket 4.0 19:56:56 10° SSE 20:02:58 54° E 20:09:05 10° NNE
BREEZE-M DEB (TANK) 4.3 20:00:26 10° W 20:03:55 63° S 20:08:43 32° ESE
Cosmos 1300 Rocket 3.5 19:59:56 10° S 20:04:21 88° W 20:08:49 10° N
Cosmos 1709 Rocket 4.2 19:58:29 10° SSW 20:04:43 73° W 20:10:55 10° N
BREEZE-M DEB (TANK) 3.5 20:03:50 10° W 20:06:18 32° SSW 20:06:54 30° S
ATLAS CENTAUR R/B 3.8 20:03:34 10° WNW 20:06:39 18° NNW 20:09:14 11° NNE
Cosmos 2360 Rocket 2.6 20:04:49 10° NW 20:10:23 60° WSW 20:14:35 18° S
Cosmos 1602 4.0 20:07:57 10° SSW 20:11:49 67° WNW 20:15:43 10° N
Cosmos 2208 Rocket 4.0 20:09:01 10° NNW 20:14:31 86° ENE 20:16:05 49° SSE
Cosmos 2219 Rocket 2.4 20:09:27 10° NNW 20:14:54 49° NE 20:15:05 49° ENE
Nadezhda 3 Rocket 4.1 20:12:27 10° N 20:18:20 49° ENE 20:18:20 49° ENE
SJ-11-01 4.1 20:18:23 76° E 20:18:30 77° ENE 20:23:17 10° NNW
GEOS 3 Rocket 3.9 20:16:58 26° NNE 20:19:53 68° NW 20:25:07 10° SW
SPOT 5 4.5 20:22:26 22° NNE 20:22:26 22° NNE 20:24:45 10° N
Cosmos 2285 Rocket 3.9 20:13:59 10° NNW 20:20:28 71° ENE 20:22:01 52° SE
SL-16 R/B 3.7 20:17:21 10° NNW 20:21:15 22° NNE 20:21:15 22° NNE
ALOS 4.4 20:18:56 10° SSW 20:22:52 26° W 20:26:48 10° NW
ARGOS 4.5 20:25:05 25° NNE 20:25:05 25° NNE 20:28:04 10° N
Cosmos 1939 Rocket 4.3 20:30:10 30° N 20:30:10 30° N 20:32:16 10° NNW
Cosmos 1140 Rocket 3.3 20:24:11 10° SSW 20:29:19 87° ESE 20:29:39 79° NE
Cosmos 468 Rocket 4.4 20:24:40 10° NNW 20:28:53 47° NNE 20:28:53 47° NNE
Okean 1 Rocket 3.5 20:26:56 10° SSW 20:31:24 63° WNW 20:35:52 10° N
Cosmos 1833 4.1 20:26:02 10° SSW 20:31:45 89° WNW 20:33:53 41° NNE
Cosmos 2333 Rocket 2.4 20:26:54 10° NNW 20:32:10 54° NE 20:32:10 54° NE
H-2A R/B 3.9 20:48:44 20° NNE 20:48:44 20° NNE 20:50:43 10° N
Envisat 3.3 20:47:39 59° SW 20:48:05 62° WSW 20:53:09 10° NNW
Cosmos 1980 4.2 20:43:45 10° NNW 20:48:12 49° N 20:48:12 49° N
USA 229 DEB 3.8 20:49:47 10° NW 20:56:53 76° SW 20:57:51 66° S
USA 229 3.8 20:49:53 10° NW 20:56:59 76° SW 20:57:56 66° S
Meteor 1-5 Rocket 4.3 20:51:06 10° SSW 20:57:06 79° WNW 21:03:04 10° N
ERS-1 Rocket 3.8 21:05:44 47° NW 21:05:44 47° NW 21:09:28 10° NNW
NOSS 3-1 (A) 4.0 21:02:21 10° NW 21:09:30 64° NE 21:09:30 64° NE
USA 215 3.5 21:11:03 56° NNE 21:11:08 56° NNE 21:17:30 10° WNW
ATLAS 2AS CENTAUR R/B 3.8 21:07:46 10° NW 21:15:18 39° NNE 21:16:02 38° NNE
Cosmos 1818 4.5 21:11:22 10° WSW 21:16:11 47° NW 21:16:11 47° NW
COSMOS 2428 3.8 21:15:43 10° NW 21:20:54 37° WSW 21:21:04 37° WSW
NOSS 3-1 (C) 4.0 21:24:08 10° NW 21:30:49 77° NW 21:30:49 77° NW
Cosmos 2237 Rocket 3.4 21:30:30 10° NNW 21:33:59 38° NW 21:33:59 38° NW
Cosmos 2219 Rocket 4.0 21:53:45 10° NW 21:56:49 26° WNW 21:56:49 26° WNW
SL-16 R/B 4.2 22:01:00 10° NNW 22:03:08 24° NNW 22:03:08 24° NNW
Cosmos 2333 Rocket 4.3 22:11:38 10° NW 22:14:12 22° WNW 22:14:12 22° WNW
ATLAS 2AS CENTAUR R/B 4.3 22:59:15 10° NW 23:03:28 34° NW 23:03:28 34° NW
